TRA49E EHRD-LEBB

Flight info

Callsign TRA49E
Flight time 1h 47m
Altitude 35000
Route WOODY N872 CIV DCT KOVIN DCT DUCRA UM728 RESMI DCT ARKIP DCT ARNAV DCT LMG DCT UVELI DCT OSMOB DCT VAVIX DCT BTZ DCT URUNA P181 SSN L176 CEGAM
Aircraft B738/M-SDE2E3FGHIJ1RWXYZ/LB1

Departure

Time 2026-05-07 07:12
Airport Rotterdam The Hague Airport (EHRD)

Arrival

Time 2026-05-07 09:00
Airport Bilbao Airport (LEBB)
Time Latitude Longitude Altitude Speed Heading
2026-05-07 06:22 51.95111 4.43487 0 ft 0 kts 327°
2026-05-07 07:08 51.95131 4.43466 0 ft 6 kts 334°
2026-05-07 07:09 51.95172 4.43488 0 ft 6 kts 13°
2026-05-07 07:09 51.95211 4.43467 0 ft 6 kts 332°
2026-05-07 07:09 51.95237 4.43403 2 ft 9 kts 261°
2026-05-07 07:09 51.95202 4.43301 0 ft 11 kts 238°
2026-05-07 07:10 51.95158 4.43186 1 ft 13 kts 239°
2026-05-07 07:10 51.95119 4.43056 1 ft 12 kts 245°
2026-05-07 07:10 51.95129 4.42936 1 ft 11 kts 313°
2026-05-07 07:10 51.95187 4.42870 2 ft 9 kts 329°
2026-05-07 07:11 51.95233 4.42886 2 ft 7 kts 52°
2026-05-07 07:11 51.95249 4.42925 1 ft 0 kts 57°
2026-05-07 07:11 51.95284 4.43010 1 ft 24 kts 56°
2026-05-07 07:12 51.95474 4.43484 -1 ft 79 kts 57°
2026-05-07 07:12 51.95874 4.44488 -2 ft 131 kts 59°
2026-05-07 07:12 51.96401 4.45896 251 ft 150 kts 56°
2026-05-07 07:12 51.96976 4.47339 698 ft 157 kts 57°
2026-05-07 07:13 51.97570 4.48866 1149 ft 164 kts 56°
2026-05-07 07:13 51.98219 4.50517 1387 ft 186 kts 58°
2026-05-07 07:13 51.98883 4.52427 1961 ft 196 kts 61°
2026-05-07 07:13 51.99446 4.54440 2779 ft 200 kts 65°
2026-05-07 07:14 52.00045 4.56659 3003 ft 236 kts 65°
2026-05-07 07:14 52.00290 4.59338 3013 ft 246 kts 95°
2026-05-07 07:14 51.99627 4.61937 3020 ft 261 kts 127°
2026-05-07 07:14 51.98152 4.63729 3207 ft 274 kts 149°
2026-05-07 07:15 51.96441 4.65150 4175 ft 276 kts 152°
2026-05-07 07:15 51.94668 4.66256 5280 ft 274 kts 167°
2026-05-07 07:15 51.92858 4.66261 6180 ft 277 kts 192°
2026-05-07 07:15 51.91135 4.64884 7055 ft 281 kts 222°
2026-05-07 07:16 51.89873 4.62468 7938 ft 282 kts 235°
2026-05-07 07:16 51.88775 4.59863 8761 ft 287 kts 238°
2026-05-07 07:16 51.87520 4.57325 9550 ft 292 kts 224°
2026-05-07 07:16 51.85862 4.55420 10371 ft 296 kts 207°
2026-05-07 07:17 51.83895 4.54289 10953 ft 306 kts 196°
2026-05-07 07:17 51.81780 4.53417 11433 ft 321 kts 194°
2026-05-07 07:17 51.79559 4.52556 11879 ft 336 kts 194°
2026-05-07 07:17 51.77242 4.51643 12407 ft 347 kts 195°
2026-05-07 07:18 51.74888 4.50680 13135 ft 351 kts 195°
2026-05-07 07:18 51.72549 4.49707 13887 ft 353 kts 195°
2026-05-07 07:18 51.70163 4.48716 14604 ft 356 kts 195°
2026-05-07 07:18 51.67750 4.47725 15291 ft 360 kts 195°
2026-05-07 07:19 51.65306 4.46725 15978 ft 364 kts 195°
2026-05-07 07:19 51.62843 4.45717 16662 ft 367 kts 195°
2026-05-07 07:19 51.60356 4.44700 17339 ft 371 kts 195°
2026-05-07 07:19 51.57846 4.43678 17996 ft 374 kts 195°
2026-05-07 07:20 51.55309 4.42645 18644 ft 377 kts 195°
2026-05-07 07:20 51.52752 4.41601 19284 ft 381 kts 195°
2026-05-07 07:20 51.50209 4.40566 19904 ft 384 kts 195°
2026-05-07 07:20 51.47612 4.39511 20482 ft 387 kts 195°
2026-05-07 07:21 51.44989 4.38443 21034 ft 390 kts 195°
2026-05-07 07:21 51.42348 4.37367 21581 ft 393 kts 195°
2026-05-07 07:21 51.39748 4.35989 22102 ft 395 kts 205°
2026-05-07 07:21 51.38087 4.34773 22471 ft 396 kts 206°
2026-05-07 07:22 51.35582 4.32898 22984 ft 399 kts 206°
2026-05-07 07:22 51.33069 4.30977 23467 ft 401 kts 207°
2026-05-07 07:22 51.30543 4.29035 23907 ft 405 kts 207°
2026-05-07 07:22 51.27168 4.26453 24524 ft 408 kts 207°
2026-05-07 07:23 51.24597 4.24504 24991 ft 409 kts 206°
2026-05-07 07:23 51.22017 4.22559 25419 ft 412 kts 206°
2026-05-07 07:23 51.20264 4.21238 25689 ft 414 kts 206°
2026-05-07 07:23 51.17688 4.19294 26077 ft 416 kts 206°
2026-05-07 07:24 51.14990 4.17570 26454 ft 420 kts 200°
2026-05-07 07:24 51.12232 4.16023 26836 ft 422 kts 200°
2026-05-07 07:24 51.09447 4.14493 27188 ft 424 kts 200°
2026-05-07 07:24 51.06647 4.12974 27525 ft 427 kts 200°
2026-05-07 07:25 51.00999 4.09899 28168 ft 431 kts 200°
2026-05-07 07:25 50.98154 4.08340 28473 ft 434 kts 200°
2026-05-07 07:25 50.95295 4.06777 28768 ft 436 kts 200°
2026-05-07 07:26 50.92459 4.05233 29041 ft 438 kts 200°
2026-05-07 07:26 50.89567 4.03663 29311 ft 440 kts 200°
2026-05-07 07:26 50.86668 4.02065 29565 ft 442 kts 201°
2026-05-07 07:26 50.83800 4.00299 29816 ft 444 kts 203°
2026-05-07 07:27 50.80953 3.98377 30069 ft 446 kts 204°
2026-05-07 07:27 50.78099 3.96427 30357 ft 447 kts 204°
2026-05-07 07:27 50.75225 3.94546 30730 ft 447 kts 202°
2026-05-07 07:27 50.72339 3.92740 31089 ft 446 kts 202°
2026-05-07 07:28 50.69454 3.90958 31393 ft 445 kts 202°
2026-05-07 07:28 50.66579 3.89150 31708 ft 445 kts 202°
2026-05-07 07:28 50.63750 3.87337 32023 ft 445 kts 202°
2026-05-07 07:28 50.60888 3.85496 32348 ft 444 kts 202°
2026-05-07 07:29 50.58026 3.83669 32669 ft 443 kts 202°
2026-05-07 07:29 50.55170 3.81834 32978 ft 443 kts 203°
2026-05-07 07:29 50.52343 3.79915 33281 ft 442 kts 204°
2026-05-07 07:29 50.49535 3.77941 33575 ft 442 kts 205°
2026-05-07 07:30 50.46732 3.75975 33869 ft 441 kts 204°
2026-05-07 07:30 50.43915 3.74047 34159 ft 442 kts 204°
2026-05-07 07:30 50.41133 3.72179 34443 ft 440 kts 204°
2026-05-07 07:30 50.38320 3.70296 34713 ft 440 kts 204°
2026-05-07 07:31 50.35505 3.68396 34986 ft 440 kts 204°
2026-05-07 07:31 50.29853 3.64549 35055 ft 445 kts 204°
2026-05-07 07:32 50.24200 3.60736 35055 ft 438 kts 204°
2026-05-07 07:32 50.18617 3.56984 35059 ft 436 kts 204°
2026-05-07 07:33 50.13087 3.53267 35060 ft 436 kts 204°
2026-05-07 07:33 50.07511 3.49533 35062 ft 439 kts 204°
2026-05-07 07:34 50.01841 3.45748 35060 ft 447 kts 204°
2026-05-07 07:34 49.96089 3.41910 35057 ft 453 kts 204°
2026-05-07 07:35 49.90299 3.38064 35060 ft 458 kts 204°
2026-05-07 07:35 49.84401 3.34159 35063 ft 463 kts 204°
2026-05-07 07:36 49.78452 3.30224 35060 ft 466 kts 204°
2026-05-07 07:36 49.72477 3.26285 35058 ft 467 kts 204°
2026-05-07 07:37 49.66506 3.22360 35060 ft 466 kts 204°
2026-05-07 07:37 49.60547 3.18453 35060 ft 464 kts 204°
2026-05-07 07:38 49.54619 3.14577 35059 ft 461 kts 204°
2026-05-07 07:38 49.48801 3.10669 35056 ft 458 kts 210°
2026-05-07 07:39 49.43440 3.05447 35066 ft 456 kts 214°
2026-05-07 07:39 49.38157 3.00043 35064 ft 457 kts 215°
2026-05-07 07:40 49.32890 2.94683 35062 ft 457 kts 214°
2026-05-07 07:40 49.27577 2.89341 35063 ft 457 kts 214°
2026-05-07 07:41 49.22273 2.83991 35062 ft 457 kts 214°
2026-05-07 07:41 49.16965 2.78650 35060 ft 457 kts 214°
2026-05-07 07:42 49.11650 2.73327 35064 ft 457 kts 214°
2026-05-07 07:42 49.06376 2.68056 35063 ft 457 kts 214°
2026-05-07 07:43 49.01059 2.62751 35062 ft 457 kts 214°
2026-05-07 07:43 48.95737 2.57456 35062 ft 457 kts 214°
2026-05-07 07:44 48.90414 2.52177 35062 ft 457 kts 214°
2026-05-07 07:44 48.85084 2.46902 35062 ft 457 kts 214°
2026-05-07 07:45 48.79793 2.41679 35063 ft 457 kts 214°
2026-05-07 07:45 48.74461 2.36429 35060 ft 457 kts 214°
2026-05-07 07:46 48.69128 2.31189 35062 ft 457 kts 214°
2026-05-07 07:46 48.63865 2.26035 35061 ft 457 kts 214°
2026-05-07 07:47 48.58688 2.21163 35059 ft 458 kts 207°
2026-05-07 07:47 48.52696 2.18476 35080 ft 463 kts 189°
2026-05-07 07:48 48.46278 2.17362 35063 ft 465 kts 187°
2026-05-07 07:48 48.39851 2.16351 35065 ft 464 kts 188°
2026-05-07 07:49 48.33445 2.15247 35066 ft 463 kts 188°
2026-05-07 07:49 48.27084 2.14170 35065 ft 463 kts 188°
2026-05-07 07:50 48.20668 2.13112 35062 ft 464 kts 188°
2026-05-07 07:50 48.14253 2.12038 35061 ft 464 kts 188°
2026-05-07 07:51 48.07835 2.10968 35057 ft 464 kts 188°
2026-05-07 07:51 48.01462 2.09912 35059 ft 464 kts 188°
2026-05-07 07:52 47.95047 2.08851 35061 ft 464 kts 188°
2026-05-07 07:52 47.88633 2.07792 35061 ft 464 kts 188°
2026-05-07 07:53 47.82211 2.06735 35061 ft 464 kts 188°
2026-05-07 07:53 47.75799 2.05680 35061 ft 464 kts 188°
2026-05-07 07:54 47.69427 2.04635 35059 ft 464 kts 188°
2026-05-07 07:54 47.63057 2.03267 35066 ft 461 kts 197°
2026-05-07 07:55 47.57044 2.00031 35062 ft 460 kts 203°
2026-05-07 07:55 47.51092 1.96536 35061 ft 460 kts 203°
2026-05-07 07:56 47.45187 1.93104 35059 ft 459 kts 203°
2026-05-07 07:56 47.39243 1.89700 35059 ft 458 kts 203°
2026-05-07 07:57 47.33303 1.86275 35057 ft 459 kts 203°
2026-05-07 07:57 47.27366 1.82860 35058 ft 458 kts 203°
2026-05-07 07:58 47.21430 1.79469 35062 ft 457 kts 203°
2026-05-07 07:58 47.15536 1.76121 35063 ft 457 kts 203°
2026-05-07 07:59 47.09595 1.72787 35068 ft 457 kts 203°
2026-05-07 07:59 47.03662 1.69454 35065 ft 456 kts 203°
2026-05-07 08:00 46.97734 1.66126 35065 ft 456 kts 203°
2026-05-07 08:00 46.91817 1.62818 35062 ft 455 kts 203°
2026-05-07 08:01 46.85937 1.59536 35064 ft 456 kts 203°
2026-05-07 08:01 46.80019 1.56242 35060 ft 455 kts 203°
2026-05-07 08:02 46.74107 1.52958 35061 ft 454 kts 203°
2026-05-07 08:02 46.68196 1.49683 35063 ft 454 kts 203°
2026-05-07 08:03 46.62287 1.46417 35064 ft 454 kts 203°
2026-05-07 08:03 46.56422 1.43184 35060 ft 454 kts 203°
2026-05-07 08:04 46.50519 1.39934 35057 ft 454 kts 203°
2026-05-07 08:04 46.44613 1.36692 35055 ft 454 kts 203°
2026-05-07 08:05 46.38709 1.33460 35055 ft 453 kts 203°
2026-05-07 08:05 46.32849 1.30257 35049 ft 453 kts 203°
2026-05-07 08:06 46.26947 1.27038 35047 ft 454 kts 203°
2026-05-07 08:06 46.21041 1.23828 35048 ft 453 kts 203°
2026-05-07 08:07 46.15143 1.20628 35045 ft 453 kts 203°
2026-05-07 08:07 46.09247 1.17435 35044 ft 452 kts 203°
2026-05-07 08:08 46.03386 1.14270 35041 ft 453 kts 203°
2026-05-07 08:08 45.97480 1.11088 35035 ft 453 kts 203°
2026-05-07 08:09 45.91613 1.07932 35036 ft 448 kts 203°
2026-05-07 08:09 45.85781 1.04804 35030 ft 447 kts 203°
2026-05-07 08:10 45.80266 1.00859 35137 ft 442 kts 219°
2026-05-07 08:10 45.77901 0.98153 35253 ft 441 kts 221°
2026-05-07 08:10 45.75536 0.95346 35342 ft 441 kts 222°
2026-05-07 08:10 45.73194 0.92516 35448 ft 441 kts 223°
2026-05-07 08:11 45.70848 0.89675 35536 ft 441 kts 222°
2026-05-07 08:11 45.68497 0.86853 35639 ft 442 kts 222°
2026-05-07 08:11 45.66129 0.84035 35596 ft 445 kts 222°
2026-05-07 08:12 45.61354 0.78366 35524 ft 447 kts 222°
2026-05-07 08:12 45.56622 0.72735 35456 ft 444 kts 222°
2026-05-07 08:13 45.51900 0.67135 35325 ft 440 kts 221°
2026-05-07 08:13 45.47211 0.61588 35062 ft 438 kts 222°
2026-05-07 08:14 45.42501 0.56024 35043 ft 442 kts 221°
2026-05-07 08:14 45.37739 0.50416 35035 ft 446 kts 221°
2026-05-07 08:15 45.32983 0.44825 35032 ft 447 kts 221°
2026-05-07 08:15 45.28193 0.39211 35036 ft 445 kts 221°
2026-05-07 08:16 45.23432 0.33641 35034 ft 442 kts 221°
2026-05-07 08:16 45.18708 0.28124 35035 ft 438 kts 221°
2026-05-07 08:17 45.14038 0.22686 35034 ft 436 kts 221°
2026-05-07 08:17 45.09355 0.17244 35035 ft 435 kts 221°
2026-05-07 08:18 45.04671 0.11812 35041 ft 436 kts 221°
2026-05-07 08:18 44.99981 0.06383 35036 ft 436 kts 221°
2026-05-07 08:19 44.95292 0.00967 35032 ft 435 kts 221°
2026-05-07 08:19 44.90637 -0.04394 35034 ft 434 kts 220°
2026-05-07 08:20 44.85972 -0.09759 35035 ft 432 kts 220°
2026-05-07 08:20 44.81324 -0.15090 35032 ft 430 kts 220°
2026-05-07 08:21 44.76677 -0.20412 35032 ft 431 kts 220°
2026-05-07 08:21 44.72007 -0.25743 35032 ft 432 kts 220°
2026-05-07 08:22 44.67375 -0.31021 35033 ft 431 kts 220°
2026-05-07 08:22 44.62663 -0.36215 35036 ft 431 kts 217°
2026-05-07 08:23 44.57649 -0.40858 35033 ft 432 kts 214°
2026-05-07 08:23 44.52654 -0.45550 35032 ft 432 kts 217°
2026-05-07 08:24 44.47777 -0.50342 35031 ft 431 kts 216°
2026-05-07 08:24 44.42831 -0.55062 35032 ft 431 kts 216°
2026-05-07 08:25 44.37871 -0.59776 35031 ft 431 kts 216°
2026-05-07 08:25 44.32929 -0.64507 35031 ft 430 kts 216°
2026-05-07 08:26 44.25536 -0.71591 35032 ft 429 kts 217°
2026-05-07 08:26 44.20783 -0.76540 35031 ft 429 kts 219°
2026-05-07 08:27 44.16015 -0.81459 35028 ft 419 kts 218°
2026-05-07 08:27 44.11356 -0.86147 35030 ft 412 kts 218°
2026-05-07 08:28 44.06754 -0.90827 35029 ft 406 kts 218°
2026-05-07 08:28 44.02239 -0.95414 35029 ft 404 kts 218°
2026-05-07 08:29 43.97695 -1.00005 35033 ft 404 kts 218°
2026-05-07 08:29 43.93170 -1.04572 35032 ft 401 kts 218°
2026-05-07 08:30 43.88660 -1.09120 35033 ft 401 kts 218°
2026-05-07 08:30 43.84177 -1.13629 35031 ft 401 kts 218°
2026-05-07 08:31 43.79657 -1.18164 35034 ft 402 kts 218°
2026-05-07 08:31 43.75116 -1.22717 34484 ft 404 kts 218°
2026-05-07 08:32 43.72842 -1.24992 34018 ft 403 kts 218°
2026-05-07 08:32 43.70579 -1.27250 33580 ft 400 kts 218°
2026-05-07 08:32 43.68334 -1.29493 33142 ft 397 kts 217°
2026-05-07 08:32 43.66103 -1.31720 32706 ft 395 kts 217°
2026-05-07 08:33 43.63878 -1.33937 32267 ft 393 kts 217°
2026-05-07 08:33 43.61698 -1.36108 31849 ft 391 kts 217°
2026-05-07 08:33 43.59495 -1.38299 31417 ft 390 kts 217°
2026-05-07 08:33 43.57296 -1.40487 30982 ft 389 kts 217°
2026-05-07 08:34 43.55104 -1.42663 30552 ft 388 kts 217°
2026-05-07 08:34 43.52917 -1.44831 30128 ft 387 kts 216°
2026-05-07 08:34 43.50740 -1.46988 29706 ft 385 kts 216°
2026-05-07 08:34 43.48568 -1.49140 29280 ft 384 kts 216°
2026-05-07 08:35 43.46576 -1.51558 28877 ft 381 kts 229°
2026-05-07 08:35 43.45010 -1.54430 28466 ft 380 kts 234°
2026-05-07 08:35 43.43521 -1.57430 28035 ft 379 kts 236°
2026-05-07 08:35 43.42069 -1.60452 27616 ft 378 kts 236°
2026-05-07 08:36 43.40629 -1.63475 27201 ft 377 kts 236°
2026-05-07 08:36 43.39184 -1.66482 26789 ft 376 kts 236°
2026-05-07 08:36 43.37732 -1.69461 26375 ft 375 kts 235°
2026-05-07 08:36 43.36279 -1.72429 25966 ft 374 kts 235°
2026-05-07 08:37 43.34839 -1.75373 25560 ft 368 kts 235°
2026-05-07 08:37 43.33428 -1.78275 25158 ft 362 kts 236°
2026-05-07 08:37 43.32061 -1.81095 24770 ft 357 kts 235°
2026-05-07 08:37 43.30529 -1.83719 24400 ft 350 kts 224°
2026-05-07 08:38 43.28769 -1.85988 24012 ft 345 kts 222°
2026-05-07 08:38 43.26996 -1.88214 23626 ft 346 kts 221°
2026-05-07 08:38 43.25213 -1.90418 23245 ft 345 kts 221°
2026-05-07 08:38 43.23427 -1.92621 22870 ft 345 kts 221°
2026-05-07 08:39 43.21647 -1.94829 22486 ft 345 kts 221°
2026-05-07 08:39 43.19876 -1.97033 22114 ft 343 kts 221°
2026-05-07 08:39 43.18109 -1.99231 21744 ft 343 kts 222°
2026-05-07 08:39 43.16345 -2.01423 21365 ft 342 kts 222°
2026-05-07 08:40 43.14604 -2.03580 21001 ft 341 kts 222°
2026-05-07 08:40 43.12848 -2.05753 20628 ft 340 kts 221°
2026-05-07 08:40 43.11099 -2.07917 20255 ft 338 kts 221°
2026-05-07 08:40 43.09357 -2.10072 19885 ft 337 kts 221°
2026-05-07 08:41 43.07624 -2.12217 19503 ft 335 kts 222°
2026-05-07 08:41 43.05902 -2.14347 19119 ft 333 kts 222°
2026-05-07 08:41 43.04185 -2.16465 18744 ft 332 kts 222°
2026-05-07 08:41 43.02476 -2.18574 18367 ft 330 kts 222°
2026-05-07 08:42 43.00856 -2.20765 17978 ft 328 kts 233°
2026-05-07 08:42 42.99903 -2.23514 17627 ft 326 kts 257°
2026-05-07 08:42 42.99957 -2.26552 17233 ft 322 kts 285°
2026-05-07 08:42 43.00928 -2.29288 16891 ft 320 kts 298°
2026-05-07 08:43 43.02111 -2.31852 16531 ft 318 kts 301°
2026-05-07 08:43 43.03354 -2.34337 16187 ft 316 kts 302°
2026-05-07 08:43 43.04581 -2.36817 15849 ft 314 kts 301°
2026-05-07 08:43 43.05763 -2.39307 15500 ft 311 kts 300°
2026-05-07 08:44 43.06913 -2.41799 15155 ft 309 kts 300°
2026-05-07 08:44 43.08038 -2.44244 14821 ft 306 kts 300°
2026-05-07 08:44 43.09175 -2.46692 14479 ft 304 kts 300°
2026-05-07 08:44 43.10309 -2.49117 14148 ft 302 kts 300°
2026-05-07 08:45 43.11436 -2.51523 13802 ft 299 kts 300°
2026-05-07 08:45 43.12550 -2.53910 13480 ft 296 kts 300°
2026-05-07 08:45 43.13652 -2.56278 13157 ft 294 kts 300°
2026-05-07 08:45 43.14743 -2.58625 12826 ft 291 kts 300°
2026-05-07 08:46 43.15823 -2.60950 12503 ft 288 kts 300°
2026-05-07 08:46 43.16898 -2.63262 12201 ft 289 kts 300°
2026-05-07 08:46 43.17984 -2.65605 11879 ft 295 kts 300°
2026-05-07 08:46 43.19076 -2.67961 11559 ft 297 kts 301°
2026-05-07 08:47 43.20177 -2.70335 11224 ft 293 kts 301°
2026-05-07 08:47 43.21249 -2.72647 10913 ft 281 kts 301°
2026-05-07 08:47 43.22272 -2.74854 10604 ft 268 kts 300°
2026-05-07 08:47 43.23250 -2.76969 10294 ft 257 kts 300°
2026-05-07 08:48 43.24186 -2.78998 10066 ft 245 kts 301°
2026-05-07 08:48 43.25069 -2.80909 9967 ft 230 kts 301°
2026-05-07 08:48 43.25914 -2.82742 9659 ft 225 kts 300°
2026-05-07 08:48 43.26462 -2.83933 9459 ft 221 kts 300°
2026-05-07 08:49 43.28977 -2.89396 8613 ft 213 kts 301°
2026-05-07 08:49 43.29765 -2.91111 8344 ft 212 kts 301°
2026-05-07 08:50 43.30584 -2.92755 8088 ft 210 kts 309°
2026-05-07 08:50 43.31575 -2.94240 7809 ft 211 kts 312°
2026-05-07 08:50 43.32575 -2.95714 7521 ft 211 kts 312°
2026-05-07 08:50 43.33568 -2.97180 7265 ft 209 kts 312°
2026-05-07 08:51 43.34557 -2.98641 6979 ft 208 kts 312°
2026-05-07 08:51 43.35540 -3.00092 6700 ft 207 kts 313°
2026-05-07 08:51 43.36520 -3.01543 6458 ft 207 kts 313°
2026-05-07 08:51 43.37498 -3.02990 6181 ft 206 kts 313°
2026-05-07 08:52 43.38472 -3.04432 5908 ft 205 kts 313°
2026-05-07 08:52 43.39434 -3.05858 5697 ft 200 kts 313°
2026-05-07 08:52 43.40360 -3.07232 5618 ft 199 kts 313°
2026-05-07 08:52 43.41310 -3.08643 5543 ft 203 kts 313°
2026-05-07 08:53 43.42274 -3.10072 5451 ft 204 kts 313°
2026-05-07 08:53 43.43239 -3.11504 5362 ft 204 kts 313°
2026-05-07 08:53 43.44204 -3.12935 5275 ft 204 kts 313°
2026-05-07 08:53 43.45132 -3.14407 5171 ft 204 kts 302°
2026-05-07 08:54 43.45398 -3.16270 5027 ft 203 kts 256°
2026-05-07 08:54 43.44643 -3.17832 4914 ft 198 kts 217°
2026-05-07 08:54 43.43417 -3.18737 4604 ft 205 kts 194°
2026-05-07 08:54 43.42082 -3.18916 4475 ft 190 kts 173°
2026-05-07 08:55 43.40822 -3.18425 4342 ft 190 kts 152°
2026-05-07 08:55 43.39765 -3.17318 4131 ft 193 kts 130°
2026-05-07 08:55 43.39074 -3.15759 3879 ft 192 kts 116°
2026-05-07 08:55 43.38485 -3.14117 3600 ft 190 kts 116°
2026-05-07 08:56 43.37905 -3.12510 3352 ft 187 kts 115°
2026-05-07 08:56 43.37330 -3.10918 3094 ft 185 kts 116°
2026-05-07 08:56 43.36757 -3.09337 2836 ft 184 kts 116°
2026-05-07 08:56 43.36199 -3.07798 2600 ft 177 kts 115°
2026-05-07 08:57 43.35669 -3.06339 2378 ft 169 kts 116°
2026-05-07 08:57 43.35158 -3.04932 2151 ft 160 kts 116°
2026-05-07 08:57 43.34667 -3.03582 1969 ft 155 kts 116°
2026-05-07 08:57 43.34187 -3.02259 1710 ft 153 kts 116°
2026-05-07 08:58 43.33720 -3.00972 1518 ft 150 kts 116°
2026-05-07 08:58 43.33263 -2.99718 1353 ft 146 kts 116°
2026-05-07 08:58 43.32814 -2.98484 1134 ft 143 kts 116°
2026-05-07 08:58 43.32371 -2.97268 902 ft 142 kts 116°
2026-05-07 08:59 43.31933 -2.96065 722 ft 141 kts 116°
2026-05-07 08:59 43.31498 -2.94871 527 ft 142 kts 116°
2026-05-07 08:59 43.31064 -2.93649 352 ft 142 kts 113°
2026-05-07 08:59 43.30626 -2.92441 176 ft 141 kts 116°
2026-05-07 09:00 43.30204 -2.91311 125 ft 106 kts 117°
2026-05-07 09:00 43.30011 -2.90786 129 ft 36 kts 116°
2026-05-07 09:00 43.29931 -2.90486 124 ft 30 kts 96°
2026-05-07 09:00 43.29935 -2.90270 132 ft 14 kts 73°
2026-05-07 09:01 43.30002 -2.90269 132 ft 12 kts 309°
2026-05-07 09:01 43.30041 -2.90367 132 ft 11 kts 299°
2026-05-07 09:01 43.30078 -2.90463 131 ft 11 kts 297°
2026-05-07 09:01 43.30114 -2.90554 131 ft 11 kts 311°
2026-05-07 09:02 43.30180 -2.90555 132 ft 10 kts 25°
2026-05-07 09:02 43.30242 -2.90529 132 ft 9 kts 349°
2026-05-07 09:02 43.30298 -2.90568 132 ft 8 kts 328°
2026-05-07 09:02 43.30324 -2.90575 132 ft 2 kts 49°
2026-05-07 09:03 43.30331 -2.90569 132 ft 1 kts 13°
2026-05-07 09:03 43.30338 -2.90580 132 ft 4 kts 316°
2026-05-07 09:03 43.30373 -2.90601 132 ft 7 kts 12°
2026-05-07 09:03 43.30406 -2.90579 132 ft 0 kts 26°